Alliance, NE

3:18 PM MST on February 27, 2015 (GMT -0700)
Alliance Municipal | Change Station
CLOSE
Current Station
Airport
Location: Alliance,
Elevation: 3930 ft
Nearby Weather Stations

Elev 3930 ft 42.06 °N, 102.80 °W | Updated 25 minutes ago

Snow
Snow
20 °F
Feels Like 2 °F
N
25
Wind Variable Wind from South
Gusts 32 mph

Today
High -- | Low -- °F
--% Chance of Precip.
Yesterday
High -- | Low -- °F
Precip. -- in
6:30 AM 5:39 PM
Waxing Gibbous, 72% visible
Pressure 30.23 in
Visibility 8.0 miles
Clouds Overcast 3500 ft
Windchill 2 °F
Dew Point 8 °F
Humidity 60%
Rainfall 0.00 in
Snow Depth Not available.
UV 1 out of 12
Pollen .50 out of 12
Air Quality Not available.
Flu Activity Not available.
METAR KAIA 272153Z AUTO 18022G28KT 8SM OVC035 M07/M13 A3004 RMK AO2 PK WND 18029/2127 SNE10 SLP236 P0000 T10671133

More Conditions Fewer Conditions

Pressure 30.23 in
Visibility 8.0 miles
Clouds Overcast 3500 ft
Windchill 2 °F
Dew Point 8 °F
Humidity 60%
Rainfall 0.00 in
Snow Depth Not available.
UV 1 out of 12
Pollen .50 out of 12
Air Quality Not available.
Flu Activity Not available.
METAR KAIA 272153Z AUTO 18022G28KT 8SM OVC035 M07/M13 A3004 RMK AO2 PK WND 18029/2127 SNE10 SLP236 P0000 T10671133

More Conditions Fewer Conditions

10-Day Weather Forecast

Almanac

Astronomy

Feb. 27, 2015 Rise Set
Actual Time
Civil Twilight
Nautical Twilight
Astronomical Twilight
Moon
Length of Visible Light
Length of Day
Tomorrow will be .
, % of the Moon is Illuminated

Today's Extremes

State Highs State Lows

Community

WunderPhotos

Upload Photos

1,800,845 photos uploaded!

WunderBlogs® & News

Nearby

Air Quality

  Air Quality AQ Index Pollutant
Not available.

Snow Depth

Station Depth Elevation

Earthquake Activity

City Distance Mag. Time & Date
Minimum magnitude displayed is 2.5.

Coastal Water Temperatures

Place Temperature

Nearby Weather Stations